DELTA 1 DEB, 7040

Orbit data source: Space-Track

DELTA 1 DEB, 7040 is space debris in SSO originally from a launch on Tue, 06 Nov 1973 UTC launched from the Air Force Western Test Range (AFWTR). Debris objects in space refer to the collection of defunct objects orbiting the Earth. Examples of debris include non-operational satellites, rocket bodies, and fragments generated from explosions, collisions, or faulty payload assembly.

Loading next visibility...
Identifier
7040, 1973-086AG
Orbit
SSO
Country
Flag of USUS
Related business
Manufacturer
Unknown
Mission
Spacecraft
Bus & Motor
Unknown
Mass
Unknown
Launch date (UTC)
1973-11-06 (53 years ago)
Launch vehicle
Unknown
Launch site
Air Force Western Test Range (AFWTR)
Object type
Payload
Rocket body
Debris
Shape & HBR
Unknown shape, 0.1 m
Radar Cross Section
Medium (>0.1 m² and <1 m²)

Expand to show TLE details & history
Last TLE update: 2 days ago

TLE from 2 days ago
0 DELTA 1 DEB
1 07040U 73086AG  26262.12278392  .00000022  00000-0  30342-3 0  9996
2 07040 102.5328 124.1850 0193880 303.6114 212.0191 12.82497817469275
Epoch: 2026-09-19T02:56Z
TLE epoch observation values (Epoch: 2026-09-19T02:56:48.530Z)
Latitude
24.9017°
Longitude
-92.15901°
Altitude
1,461.71 km
Speed
7.075 km/s
True Right ascension
20h 40m 18s
True Declination
24° 46' 57"
Sunlit
Object was in full shadow at epoch
Visualization orbit readout
Latitude
Unknown
Longitude
Unknown
Altitude
Unknown
Speed
Unknown
Apparent Right ascension
Unknown
Apparent Declination
Unknown
Sunlit
N/A
Visualization observer readout
Local Sidereal Time
08:48:10
Azimuth
Unknown
Elevation
Unknown
Doppler factor
Unknown
Orbital elements
Apogee altitude
1,478.421 km
Perigee altitude
1,179.569 km
Semi-major axis
7,707.132 km
Eccentricity
0.01939
Inclination
102.5328°
RAAN
124.185°
Arg. of periapsis
303.6114°
True anomaly
210.86496°
Mean anomaly
212.0191°
Eccentric anomaly
211.43968°
Mean motion
3.20778 °/min
Orbital period
112.23 mins
BSTAR
0.00030342
Loading maneuver chart data...
Computing Atmospheric mass density...
Loading historical data...
Loading historical data...
Loading historical data...
Loading historical data...
Loading historical data...
Loading historical data...
Loading historical data...

Documentation

Showing up to 5 results
|